Molokai, HI

3:17 AM HST on April 25, 2017 (GMT -1000)
Molokai

Weather History for PHMK - February, 2013

Change the Weather History Date:

Thursday, February 14, 2013

  Actual Average Record
Temperature  
Mean Temperature 68 °F -  
Max Temperature 73 °F 78 °F 84 °F (1977)
Min Temperature 64 °F 62 °F 56 °F (1957)
Cooling Degree Days 4    
Growing Degree Days 18 (Base 50)    
Moisture  
Dew Point 59 °F    
Average Humidity 70    
Maximum Humidity 81    
Minimum Humidity 57    
Precipitation  
Precipitation 0.00 in - - ()
Sea Level Pressure  
Sea Level Pressure 30.08 in    
Wind  
Wind Speed 9 mph (NE)    
Max Wind Speed 16 mph    
Max Gust Speed 25 mph    
Visibility 10 miles    
Events Rain    
Averages and records for this station are not official NWS values.
T = Trace of Precipitation, MM = Missing Value Source: NWS Daily Summary

Daily Weather History Graph

Daily Weather History Graph

Search for Another Location

Airport or City:

Trip Planner

Search our weather history database for the weather conditions in past years. The results will help you decide how hot, cold, wet, or windy it might be!

Date:

Astronomy

Feb. 14, 2013 Rise Set
Actual Time 6:59 AM HST 6:26 PM HST
Civil Twilight 6:36 AM HST 6:49 PM HST
Nautical Twilight 6:10 AM HST 7:15 PM HST
Astronomical Twilight 5:44 AM HST 7:41 PM HST
Moon 9:51 AM HST (2/14) 10:52 PM HST (2/14)
Length of Visible Light 12h 12m
Length of Day
11h 27m
Waxing Crescent, 23% of the Moon is Illuminated
Feb 14
Waxing Crescent
Feb 17
First Quarter
Feb 25
Full
Mar 4
Last Quarter
Mar 11
New

Hourly Weather History & Observations

Time (HST) Temp. Dew Point Humidity Pressure Visibility Wind Dir Wind Speed Gust Speed Precip Events Conditions
12:54 AM 68.0 °F 54.0 °F 61% 30.11 in 10.0 mi NNE 4.6 mph - N/A   Partly Cloudy
1:54 AM 68.0 °F 57.9 °F 70% 30.10 in 10.0 mi Variable 6.9 mph - N/A   Overcast
2:54 AM 64.9 °F 59.0 °F 81% 30.09 in 10.0 mi ENE 5.8 mph 16.1 mph 0.00 in Rain Light Rain
3:09 AM 66.2 °F 59.0 °F 78% 30.07 in 10.0 mi NE 8.1 mph - 0.00 in   Overcast
3:54 AM 64.9 °F 59.0 °F 81% 30.07 in 8.0 mi ENE 11.5 mph 19.6 mph 0.00 in Rain Light Rain
4:54 AM 64.9 °F 59.0 °F 81% 30.08 in 10.0 mi NE 3.5 mph - 0.00 in   Overcast
5:54 AM 66.0 °F 59.0 °F 78% 30.09 in 10.0 mi NE 8.1 mph - N/A   Overcast
6:54 AM 66.0 °F 59.0 °F 78% 30.10 in 10.0 mi NE 5.8 mph - 0.00 in   Overcast
7:54 AM 68.0 °F 57.0 °F 68% 30.12 in 10.0 mi NNE 10.4 mph - N/A   Mostly Cloudy
8:54 AM 71.1 °F 57.9 °F 63% 30.13 in 10.0 mi NE 10.4 mph 17.3 mph N/A   Scattered Clouds
9:54 AM 73.0 °F 57.9 °F 59% 30.14 in 10.0 mi NE 12.7 mph 16.1 mph N/A   Mostly Cloudy
10:54 AM 73.9 °F 60.1 °F 62% 30.13 in 10.0 mi NE 15.0 mph 23.0 mph 0.00 in   Scattered Clouds
11:54 AM 73.0 °F 61.0 °F 66% 30.10 in 10.0 mi NNE 12.7 mph 25.3 mph N/A   Scattered Clouds
12:54 PM 73.9 °F 60.1 °F 62% 30.07 in 10.0 mi NE 16.1 mph 25.3 mph N/A   Scattered Clouds
1:54 PM 73.9 °F 59.0 °F 59% 30.05 in 10.0 mi NNE 10.4 mph 24.2 mph N/A   Clear
2:54 PM 73.9 °F 57.9 °F 57% 30.03 in 10.0 mi NE 13.8 mph 21.9 mph N/A   Partly Cloudy
3:54 PM 73.0 °F 59.0 °F 61% 30.03 in 10.0 mi NNE 13.8 mph 23.0 mph N/A   Scattered Clouds
4:54 PM 72.0 °F 60.1 °F 66% 30.04 in 10.0 mi NE 15.0 mph 23.0 mph N/A   Partly Cloudy
5:54 PM 69.1 °F 61.0 °F 75% 30.05 in 10.0 mi NNE 9.2 mph 18.4 mph 0.00 in Rain Light Rain
6:54 PM 68.0 °F 57.9 °F 70% 30.07 in 10.0 mi NE 6.9 mph - 0.00 in   Clear
7:54 PM 66.9 °F 59.0 °F 76% 30.08 in 10.0 mi NE 10.4 mph 17.3 mph 0.00 in   Partly Cloudy
8:54 PM 66.9 °F 57.9 °F 73% 30.09 in 10.0 mi ENE 10.4 mph - N/A   Scattered Clouds
9:54 PM 66.9 °F 57.9 °F 73% 30.09 in 10.0 mi NE 10.4 mph - N/A   Clear
10:54 PM 68.0 °F 59.0 °F 73% 30.10 in 10.0 mi NE 13.8 mph 20.7 mph N/A   Mostly Cloudy
11:54 PM 66.9 °F 60.1 °F 79% 30.09 in 10.0 mi NE 10.4 mph - 0.00 in   Mostly Cloudy